Home > Time Zones > World Clock > Weather > Mali > Bamako > Past weeks

Flag for Mali Weather past 2 weeks in Bamako, Mali

Now
82 °F

Clear.


Feels Like: 82 °F
Forecast: 80 / 104 °F
Wind: No wind

Location: Bamako / Senou

Current Time: Apr 22, 2015 at 2:46:28 AM

Latest Report: Apr 22, 2015 at 2:00 AM


Visibility: 10 mi

Pressure: 29.86 "Hg

Humidity: 45%

Dew point: 59 °F

Location of BamakoLocation

Historic Weather in Bamako — Graph

°F

Bamako temperature yesterday

Maximum temperature yesterday: 104 °F (at 3:30 PM)
Minimum temperature yesterday: 81 °F (at 3:30 AM)
Average temperature yesterday: 92 °F

Past Weeks' High & Low Weather Summary

 TemperatureHumidityPressure
High108 °F (Apr 9, 2:30 PM)94% (Apr 7, 4:30 AM)30.01 "Hg (Apr 7, 4:30 AM)
Low72 °F (Apr 15, 6:00 AM)4% (Apr 11, 12:00 PM)29.77 "Hg (Apr 19, 4:00 PM)
Average91 °F22%29.89 "Hg
* Reported Apr 7 2:00 AM — Apr 22 2:00 AM, Bamako, Weather by CustomWeather, © 2015

Note: Actual official high and low records may vary slightly from our data, if they occured in-between our weather recording intervals... More about our weather records

Advertising

Bamako weather history for previous 24 hours

 ConditionsComfort  
Time TempWeatherWind HumidityBarometerVisibility
2:00 AM
Wed, Apr 22
82 °FClear.No wind45%29.86 "Hg10 mi
1:30 AM82 °FClear.2 mph45%29.86 "Hg10 mi
1:00 AM82 °FClear.2 mph55%29.86 "Hg10 mi
12:30 AM82 °FClear.3 mph48%29.89 "Hg10 mi
12:00 AM82 °FClear.3 mph48%29.89 "Hg10 mi
11:30 PM
Tue, Apr 21
86 °FClear.2 mph40%29.89 "Hg10 mi
11:00 PM86 °FClear.1 mph46%29.89 "Hg10 mi
10:30 PM91 °FClear.5 mph24%29.89 "Hg10 mi
10:00 PM91 °FClear.5 mph21%29.89 "Hg10 mi
9:00 PM91 °FClear.5 mph34%29.83 "Hg10 mi
8:30 PM95 °FClear.3 mph25%29.86 "Hg10 mi
8:00 PM97 °FClear.5 mph18%29.83 "Hg10 mi
7:30 PM97 °FClear.3 mph17%29.83 "Hg5 mi
7:00 PM99 °FPassing clouds.5 mph17%29.80 "Hg5 mi
6:30 PM100 °FPassing clouds.6 mph15%29.80 "Hg5 mi
6:00 PM102 °FPassing clouds.6 mph14%29.80 "Hg5 mi
5:30 PM102 °FPassing clouds.3 mph13%29.80 "Hg5 mi
5:00 PM102 °FPassing clouds.6 mph14%29.80 "Hg5 mi
4:30 PM104 °FScattered clouds.3 mph12%29.80 "Hg5 mi
4:00 PM104 °FScattered clouds.6 mph13%29.80 "Hg5 mi
3:30 PM104 °FPartly sunny.7 mph13%29.80 "Hg5 mi
3:00 PM102 °FPartly sunny.9 mph16%29.83 "Hg5 mi
2:30 PM102 °FPartly sunny.2 mph17%29.83 "HgN/A
2:00 PM102 °FPartly sunny.5 mph17%29.83 "HgN/A
1:30 PM102 °FPartly sunny.3 mph17%29.83 "HgN/A
1:00 PM100 °FPassing clouds.7 mph20%29.86 "HgN/A
12:30 PM100 °FPassing clouds.9 mph20%29.89 "HgN/A
12:00 PM99 °FPassing clouds.6 mph25%29.89 "HgN/A
11:30 AM97 °FSunny.5 mph28%29.89 "Hg10 mi
11:00 AM95 °FSunny.3 mph30%29.92 "Hg10 mi
10:30 AM93 °FPassing clouds.5 mph34%29.92 "HgN/A
10:00 AM91 °FPassing clouds.8 mph38%29.92 "HgN/A
9:30 AM90 °FSunny.10 mph43%29.92 "Hg10 mi
9:00 AM88 °FSunny.10 mph46%29.92 "Hg10 mi
8:30 AM86 °FSunny.7 mph52%29.92 "Hg10 mi
8:00 AM84 °FSunny.6 mph55%29.89 "Hg10 mi
7:30 AM82 °FSunny.6 mph58%29.89 "Hg10 mi
7:00 AM82 °FSunny.7 mph55%29.89 "Hg10 mi
6:30 AM82 °FSunny.6 mph58%29.86 "Hg10 mi
6:00 AM81 °FClear.3 mph62%29.86 "Hg10 mi
5:30 AM81 °FClear.1 mph74%29.86 "Hg10 mi
5:00 AM82 °FClear.3 mph66%29.83 "Hg10 mi
4:30 AM82 °FClear.5 mph55%29.83 "Hg10 mi
4:00 AM81 °FClear.3 mph74%29.83 "Hg10 mi
3:30 AM81 °FClear.2 mph79%29.83 "Hg10 mi
3:00 AM82 °FClear.No wind62%29.83 "Hg10 mi
2:30 AM82 °FClear.No wind84%29.83 "Hg10 mi
2:00 AM82 °FClear.No wind79%29.83 "Hg10 mi
Weather by CustomWeather, © 2015

See weather overviewHow to use our weather pages